Location: Lugrin
(46.4033°N, 6.6674°E)
Time: 17:28:27
(UTC+00:00)

NOSS 2-2 (D) - Pass Details

Date: 18 September 2020
Orbit: 469 x 1739 km, 63.3° (Epoch: 23 October)

Event Time Altitude Azimuth Distance (km) Brightness Sun altitude
Rises 19:19:55 0° 224° (SW) 2,506 7.0 -17.9°
Reaches altitude 10° 19:21:59 10° 227° (SW) 1,626 6.0 -18.2°
Maximum altitude 19:25:27 68° 311° (NW) 534 3.4 -18.8°
Drops below altitude 10° 19:29:22 10° 35° (NE) 1,829 5.9 -19.4°
Sets 19:31:48 0° 38° (NE) 2,860 6.8 -19.8°
